Wind_Speed
25 26 26 26 27 27 28 28 28 29 29 30 30 31 32 33 34 34 35 36 36 37 37 37 37 37 37 37 36 36 36 36 36 35 35 34 34 34 34 34 34 34 34 35 35 34 33 33 33 35 36 36 38 39 40 40 38 38 38 39 40 40 39 38 37 36 36 35 35
26 26 27 27 28 28 28 29 29 30 30 31 31 32 33 33 34 35 36 36 37 37 38 38 38 38 38 38 38 38 38 38 38 37 37 36 35 35 35 35 35 34 33 32 31 30 29 31 33 35 35 35 36 36 37 39 38 37 37 38 39 40 40 37 36 34 34 34 35
27 27 27 28 28 29 29 30 30 31 31 32 32 33 33 34 35 36 37 37 38 38 38 39 39 38 38 39 40 40 40 39 39 39 38 38 37 37 35 34 33 31 29 29 28 27 26 28 29 30 29 27 27 28 30 31 31 32 33 34 34 35 34 32 30 28 27 28 30
27 27 28 28 28 29 30 30 31 31 32 33 33 34 34 35 36 37 37 38 38 39 39 39 39 39 39 39 39 40 39 39 39 38 38 38 37 35 34 31 29 27 26 27 26 25 25 26 26 27 27 25 27 31 34 36 35 34 33 33 32 31 30 30 31 30 29 27 26
27 27 28 28 29 29 30 31 31 32 33 34 34 35 35 36 37 38 38 38 38 38 38 38 38 38 38 38 38 38 38 38 38 37 36 35 34 32 30 28 27 26 26 25 26 26 26 26 26 27 27 28 31 34 37 37 36 33 32 30 29 28 26 26 27 29 30 29 27
27 27 28 28 29 30 31 31 32 33 34 35 35 36 37 37 37 37 37 37 37 37 37 37 37 36 36 36 36 36 36 36 36 35 33 31 29 28 27 27 27 26 25 25 26 26 27 27 27 27 27 29 31 32 33 34 32 29 26 25 25 24 23 23 23 23 23 23 22
27 28 28 29 30 31 32 32 33 34 35 35 36 36 36 36 36 35 35 35 35 35 34 34 33 33 34 34 34 34 34 34 33 31 28 27 26 27 28 28 29 28 27 26 26 26 27 27 27 27 27 27 28 28 29 30 29 27 23 21 20 21 22 22 21 19 18 16 16
28 28 29 30 31 32 32 33 34 35 35 36 35 35 34 33 33 33 33 32 32 32 31 30 30 30 31 31 32 32 31 30 28 27 26 26 27 29 30 31 31 30 29 28 27 27 26 26 26 26 26 26 26 26 26 26 26 25 23 20 18 17 16 15 14 13 12 12 12
29 30 30 31 32 32 33 34 34 34 35 34 34 32 31 31 31 30 30 30 29 28 28 28 28 28 28 28 28 28 27 26 26 27 28 30 31 32 32 32 31 30 29 28 27 26 26 26 25 25 24 24 24 24 24 23 23 23 23 22 20 18 15 12 10 10 11 12 12
30 31 31 32 32 33 33 34 34 33 33 32 31 30 29 28 28 27 27 27 26 26 26 26 25 25 25 24 24 24 25 26 28 30 31 33 33 33 32 30 29 28 27 26 25 24 24 24 24 24 24 24 24 24 24 23 23 23 23 23 23 21 18 15 14 13 14 14 14
30 31 31 32 32 33 33 33 33 32 31 31 30 28 27 27 26 26 25 25 25 24 24 23 22 21 21 22 22 24 25 28 30 32 33 33 33 31 29 28 26 25 25 24 24 23 22 22 22 22 22 23 23 23 23 23 23 23 22 23 23 22 21 19 18 17 15 14 13
30 31 31 31 32 32 32 32 32 31 30 29 29 28 27 26 25 25 25 25 24 23 22 21 20 19 20 21 23 25 27 29 31 33 33 33 32 30 28 27 25 24 24 23 23 22 22 21 20 21 21 21 21 21 21 21 20 20 19 18 18 18 17 16 15 13 10 9 7
29 30 30 31 31 31 32 31 31 31 30 29 28 28 27 26 26 26 27 27 26 25 24 22 21 21 22 24 27 28 30 32 33 33 33 33 32 31 29 27 25 24 23 23 22 22 21 20 19 19 19 20 19 19 18 18 18 17 16 15 14 13 12 11 10 8 8 7 7
29 29 29 30 31 31 31 31 31 31 30 30 29 29 28 28 29 29 30 30 30 30 29 28 28 28 29 30 32 33 33 33 33 33 33 32 31 30 28 25 23 22 21 21 21 20 19 18 18 17 17 18 18 18 17 17 17 17 17 17 16 16 15 14 13 13 12 12 11
28 28 29 30 30 31 31 31 31 31 31 31 30 30 31 32 32 33 33 34 34 33 33 33 33 34 35 35 35 35 35 34 32 31 30 30 28 26 24 22 20 19 19 19 19 18 17 17 16 16 16 16 17 17 17 17 18 18 18 18 19 19 19 19 18 18 18 17 17
27 28 28 29 30 31 31 32 32 32 32 32 32 33 33 34 35 35 35 34 33 33 33 33 33 35 35 36 35 34 33 32 30 28 27 26 23 21 19 17 17 17 17 17 17 17 17 16 16 16 16 16 17 17 17 18 18 18 18 19 19 19 20 20 20 21 20 20 19
26 27 28 29 30 31 31 32 32 32 32 33 34 35 35 36 36 35 33 32 31 30 31 31 32 33 34 34 33 31 29 27 26 24 22 20 18 16 14 14 14 15 16 17 18 18 18 18 18 17 17 17 17 17 17 18 18 18 19 19 19 19 19 19 19 19 19 19 19
26 27 28 29 30 30 31 31 32 33 33 34 35 36 36 36 35 34 32 31 30 30 31 32 33 33 32 31 29 27 24 23 21 19 17 15 13 12 12 13 14 15 16 18 19 19 20 19 19 18 18 17 17 17 17 18 18 18 18 19 18 18 18 17 17 16 16 16 16
26 27 28 29 30 31 31 32 32 33 33 34 35 35 35 35 33 33 32 32 32 32 33 33 33 32 30 27 25 23 21 19 17 15 13 12 11 12 12 13 14 16 17 18 20 20 20 20 19 18 18 18 17 17 18 18 18 18 19 19 19 18 18 17 16 15 14 14 13
27 27 28 29 30 32 33 33 33 33 33 33 33 33 33 32 32 32 32 32 32 32 32 31 30 29 26 24 22 20 18 16 14 13 11 11 11 12 13 14 15 16 18 19 20 21 21 20 19 18 18 18 18 18 18 19 19 20 20 21 20 20 19 18 17 15 14 13 12
27 28 29 30 32 34 35 34 34 33 32 32 31 31 31 30 30 30 30 30 30 30 29 28 27 25 23 21 19 18 16 14 12 11 10 10 11 12 13 15 16 17 18 19 21 21 21 20 19 18 18 18 18 18 19 20 20 21 22 23 23 23 22 20 19 17 15 14 12
28 29 31 32 34 35 36 35 34 33 32 31 30 29 29 28 28 28 28 28 28 27 25 24 23 21 20 18 17 16 14 12 11 10 10 10 10 12 13 14 15 17 18 19 20 21 20 19 19 18 18 17 18 18 19 20 21 23 24 24 25 24 24 23 21 19 17 15 13
29 31 32 34 35 36 36 35 35 33 32 30 29 28 27 27 27 26 26 26 25 24 22 21 19 18 17 16 16 15 14 12 11 10 9 9 10 11 12 14 15 17 18 19 20 20 20 20 19 18 17 17 17 18 19 20 22 23 24 25 25 25 24 24 23 21 19 17 15
31 32 34 35 36 36 36 35 34 33 31 29 27 26 26 26 25 25 25 25 24 23 21 19 17 16 15 15 15 15 14 13 12 10 9 9 10 12 13 15 16 17 18 19 20 21 21 20 19 18 17 17 17 18 19 21 22 23 24 24 24 24 24 24 23 22 21 19 17
32 33 34 35 36 36 35 34 33 31 29 28 26 25 25 25 25 25 25 24 24 23 21 19 17 16 15 15 15 15 15 15 13 12 11 11 13 14 16 18 18 19 20 20 21 22 22 21 20 19 18 18 18 19 21 22 23 23 23 23 23 23 23 23 23 22 22 21 19
32 33 34 35 35 35 34 33 31 29 28 26 25 24 24 24 24 24 24 24 24 23 22 21 19 17 16 15 16 16 17 17 16 15 14 15 17 18 19 19 19 20 21 22 22 23 23 22 21 20 20 20 21 21 22 23 23 23 22 22 22 22 23 23 23 23 22 21 20
32 33 34 34 34 34 32 31 29 28 26 25 24 23 23 23 23 23 23 23 23 23 22 21 20 18 17 16 17 18 19 20 20 19 19 20 20 20 19 19 20 21 22 23 23 23 23 23 22 22 22 22 22 22 22 22 22 22 22 22 22 22 23 23 23 23 23 22 21
32 32 33 33 33 32 30 29 27 26 25 24 23 23 22 22 22 22 21 22 22 22 22 22 20 19 19 19 19 20 21 22 22 22 22 21 20 19 19 19 20 22 23 23 24 24 24 24 23 23 23 22 22 22 22 22 22 22 22 22 23 23 23 23 23 23 23 23 22
31 32 32 32 31 30 28 27 25 24 24 23 22 22 21 21 20 20 20 20 21 22 22 22 22 21 22 22 22 22 22 22 22 22 21 21 20 19 19 20 21 23 23 24 24 24 24 24 24 24 24 23 23 22 22 22 22 22 23 23 23 23 23 23 23 23 23 23 22
30 30 30 30 29 27 26 24 23 23 23 22 22 21 21 20 19 19 19 19 20 21 22 22 23 23 24 23 23 22 22 21 20 20 19 19 19 19 20 21 22 23 23 23 23 24 24 25 25 25 24 24 23 22 22 22 23 23 23 24 24 24 24 24 24 24 24 24 24
29 29 29 28 26 25 24 23 22 22 22 22 22 21 20 19 19 19 19 20 20 21 21 22 23 24 24 24 23 22 21 20 19 19 18 18 19 19 20 21 22 22 23 23 23 23 24 24 25 25 25 25 24 23 23 23 23 23 23 23 24 24 24 25 25 25 26 26 26
28 28 27 26 25 23 22 21 21 21 21 22 22 21 20 19 19 19 20 20 21 21 22 23 23 24 24 24 24 23 22 22 21 20 20 19 20 20 20 21 22 22 22 22 23 23 23 24 24 25 25 25 25 25 24 23 23 22 22 22 23 23 24 25 25 26 27 28 28
27 27 26 25 23 22 21 20 20 20 21 22 22 22 21 20 19 20 20 21 22 22 23 23 23 23 24 24 24 24 24 24 24 23 22 22 21 21 22 22 22 22 22 22 22 22 23 23 24 24 24 25 25 25 24 23 22 21 21 21 22 23 24 25 26 27 28 29 30
26 25 25 23 22 22 21 20 20 20 21 22 22 22 22 21 20 21 21 22 22 22 22 22 23 23 23 23 23 24 24 24 24 23 23 22 22 22 22 23 23 23 23 22 22 22 23 23 23 23 24 24 24 24 23 22 21 21 21 21 22 23 24 25 26 27 28 29 30
25 25 24 23 22 21 21 21 21 21 21 22 22 23 22 21 21 21 21 22 22 22 22 22 22 22 22 22 22 23 23 23 23 22 21 21 21 21 22 23 24 24 24 23 23 22 22 23 23 23 23 23 23 23 22 21 20 20 21 22 23 24 25 25 26 27 29 30 30
24 24 23 22 21 21 21 21 21 22 22 22 22 23 22 22 21 21 21 21 22 22 22 22 22 22 21 21 21 21 21 21 21 21 20 20 20 21 22 24 25 25 25 24 23 23 23 23 23 23 23 23 22 22 21 20 20 21 22 23 23 24 25 26 27 28 29 30 30
23 23 22 21 20 20 20 21 22 22 22 22 22 22 22 22 22 21 21 21 22 22 22 22 22 21 21 20 20 21 21 21 21 21 20 20 20 21 23 25 26 26 25 24 24 23 23 23 23 23 23 23 22 22 21 21 21 22 23 24 24 25 26 27 28 29 29 30 30
22 22 21 20 19 19 19 20 21 22 22 22 21 22 22 22 22 22 22 22 22 22 22 22 22 21 20 20 20 21 22 22 21 21 21 20 21 22 24 26 27 26 25 25 24 24 24 24 23 23 23 23 23 23 23 23 24 24 25 26 27 27 28 29 29 30 30 30 29
22 21 20 18 17 17 18 20 21 21 21 21 21 21 22 22 22 22 22 22 22 22 22 22 21 21 20 20 21 21 22 22 22 22 22 21 22 23 25 26 26 26 25 25 25 24 24 24 24 24 24 25 25 25 26 26 27 27 28 29 30 30 30 31 31 31 31 30 30
21 20 19 17 17 17 18 19 20 20 20 20 20 21 22 22 23 23 22 22 22 22 21 21 21 20 20 21 21 22 22 23 23 23 22 22 23 23 24 25 24 24 24 24 24 25 25 25 25 25 25 26 27 27 28 29 29 30 30 31 31 32 32 32 32 32 32 32 32
20 19 18 17 16 17 17 18 18 18 19 19 20 21 22 23 23 23 23 22 22 22 21 21 21 21 21 21 22 22 23 23 23 23 22 22 22 23 23 23 22 22 23 23 24 24 25 25 26 26 27 27 28 29 30 30 30 30 31 31 32 32 33 34 34 34 34 34 34
Wind_Direction
329 329 328 327 327 326 326 326 326 326 327 327 327 327 327 325 324 322 322 322 322 322 320 319 317 315 314 314 313 313 312 311 311 310 309 308 307 306 303 300 295 290 286 283 280 279 278 279 281 283 285 286 286 286 286 285 283 281 277 274 272 272 272 272 271 270 268 266 265
329 328 327 326 326 325 325 326 326 326 326 326 327 327 326 324 323 322 322 322 322 320 319 317 315 314 313 313 312 312 312 312 312 312 311 311 310 309 308 307 303 297 292 288 284 284 287 290 290 290 290 291 291 292 291 288 286 285 284 281 278 276 276 277 277 275 272 270 267
329 328 327 327 327 327 328 328 327 327 326 326 325 325 324 323 322 322 322 322 320 319 318 316 316 315 314 313 312 312 312 312 312 313 313 313 313 312 312 311 307 302 298 294 292 294 298 298 296 294 295 298 304 308 309 306 302 300 298 296 293 289 286 282 279 275 273 271 267
328 329 329 329 330 330 329 329 328 327 326 325 324 324 323 323 322 322 322 321 320 319 318 317 316 316 315 314 314 313 312 312 312 313 314 315 315 315 314 312 309 307 304 302 303 306 307 304 301 298 300 309 322 328 327 323 319 314 311 308 306 302 296 289 282 276 271 267 263
329 329 330 330 329 329 329 328 328 327 326 325 325 325 325 325 325 324 324 323 322 321 319 318 317 316 316 316 316 315 314 313 313 314 315 316 317 318 317 316 314 312 312 316 319 320 319 314 309 308 311 320 328 331 330 326 321 317 315 313 310 307 303 299 294 286 278 271 268
330 330 329 329 329 329 328 328 328 327 327 326 326 327 328 328 327 326 326 324 322 321 320 319 318 318 319 319 318 317 316 315 315 316 317 319 322 324 326 325 324 324 325 329 331 329 325 321 319 319 322 326 328 329 327 324 320 316 315 315 311 309 309 308 305 301 297 291 288
331 330 330 330 329 329 329 328 328 328 327 328 328 329 330 330 328 327 325 323 322 321 321 322 322 321 320 320 319 318 318 318 318 319 321 325 328 332 334 335 333 332 331 330 329 327 325 325 326 327 328 329 327 325 324 322 319 316 315 316 312 309 307 304 302 304 309 312 310
330 330 330 329 329 329 329 329 329 329 329 330 331 332 331 330 328 326 325 323 323 324 324 324 324 323 322 321 321 321 322 323 324 327 330 332 334 335 336 336 334 332 328 325 324 324 324 325 327 328 329 327 325 322 321 320 318 316 313 313 314 313 308 302 297 297 301 303 301
330 330 329 329 329 329 329 329 330 331 332 332 333 333 332 330 328 327 327 327 327 327 326 325 324 323 322 323 324 327 329 332 334 336 337 338 337 336 335 334 332 330 326 324 323 323 323 324 326 327 327 325 322 320 317 316 315 313 311 309 309 309 307 300 291 285 283 282 279
331 330 330 330 330 330 330 331 332 333 334 335 335 334 333 331 330 330 330 331 330 329 328 327 326 326 327 329 333 337 339 341 341 341 341 340 339 338 336 334 331 328 326 326 325 325 324 325 326 326 324 322 319 316 314 312 310 308 306 303 300 299 298 295 291 287 285 284 280
331 331 331 331 331 331 332 333 335 336 336 336 335 335 334 333 333 333 333 332 331 331 331 331 330 332 336 340 343 344 344 343 342 342 341 340 340 338 336 334 331 329 328 328 329 330 329 330 330 328 325 321 318 315 312 309 307 304 300 296 292 289 288 288 289 290 292 294 293
332 332 332 332 332 332 333 335 336 337 336 336 335 334 334 334 334 334 332 331 331 333 334 335 337 339 342 345 344 343 341 340 340 339 339 339 338 337 335 333 332 332 333 335 337 338 338 337 336 332 328 323 319 316 314 312 310 308 304 299 293 291 290 291 293 297 303 311 316
333 333 333 333 334 334 335 336 336 336 336 335 333 333 333 332 332 331 331 330 330 331 332 334 336 337 339 339 339 338 337 337 337 337 336 336 335 334 333 333 334 336 339 342 344 344 344 342 340 336 331 326 324 322 321 321 321 320 318 316 316 316 318 322 328 336 346 355 1
334 335 335 336 336 336 337 337 336 336 335 333 332 331 331 330 329 329 328 328 328 327 327 328 329 331 333 334 335 335 336 336 336 335 334 333 331 331 331 333 336 340 345 348 349 350 349 347 344 340 336 334 333 332 332 331 331 330 329 328 329 331 333 335 337 340 342 345 350
336 337 337 337 337 337 337 337 337 335 334 332 332 331 330 329 328 328 327 327 326 326 325 325 327 328 330 332 334 335 336 336 335 334 333 331 330 330 332 335 340 346 351 354 356 356 355 354 352 349 347 346 345 344 343 341 340 338 335 333 332 330 329 329 328 328 329 330 331
338 338 339 338 338 338 338 337 336 335 333 332 332 331 331 330 330 330 329 329 328 327 326 326 327 328 330 332 334 335 336 336 335 334 332 331 331 333 338 344 349 355 359 2 4 5 5 4 3 2 0 359 358 357 356 355 353 351 348 345 341 338 334 332 331 329 329 328 328
338 339 339 338 338 339 338 337 336 334 333 332 332 332 332 332 332 333 333 332 331 330 329 329 330 331 332 333 335 337 337 337 336 335 334 335 338 344 351 357 2 6 8 10 11 11 10 9 8 7 5 4 3 2 2 2 2 2 1 359 355 351 347 343 340 338 336 335 334
338 337 337 337 338 338 338 338 337 336 334 333 332 332 332 333 333 334 334 333 332 331 331 331 332 334 335 336 337 339 339 339 338 338 340 344 350 358 4 9 12 13 14 13 12 11 9 7 5 2 0 358 357 357 357 358 360 1 1 1 360 358 355 352 348 346 344 344 344
336 335 336 337 338 339 339 339 339 337 335 333 332 331 331 331 332 332 331 331 331 331 331 332 333 335 337 339 340 340 340 341 340 342 346 353 359 4 7 10 12 12 12 10 8 6 4 1 358 354 351 348 347 347 348 350 351 352 353 354 354 354 353 352 349 347 345 346 348
334 334 334 336 338 339 340 340 339 337 335 333 331 331 330 330 330 329 329 329 329 329 330 332 334 336 338 340 341 342 343 344 344 346 351 358 3 5 5 6 7 7 6 4 3 1 359 356 351 347 342 340 339 339 340 342 343 344 345 346 347 348 348 348 347 345 342 342 344
333 334 334 335 337 338 339 339 337 336 334 332 331 331 330 330 329 329 328 328 328 329 331 333 335 337 339 342 344 346 347 349 350 351 355 1 6 6 5 3 2 1 0 359 358 357 355 351 346 340 336 333 332 332 334 336 337 338 339 341 342 343 344 345 346 345 343 340 339
334 334 334 335 336 337 338 337 336 334 333 333 332 332 332 332 331 330 329 329 330 331 333 336 337 340 343 346 349 350 352 353 353 354 356 0 4 5 2 359 358 356 355 354 353 352 349 346 341 336 331 328 327 328 330 332 334 335 337 338 339 340 341 343 344 344 343 341 337
334 334 334 335 336 337 337 336 335 335 334 335 336 336 336 335 334 333 332 332 332 334 336 338 340 343 346 348 350 350 349 348 348 348 351 354 356 357 356 354 352 351 350 349 348 346 344 342 339 334 331 328 327 327 329 331 333 335 336 337 338 339 340 341 342 343 342 341 337
334 334 335 336 337 337 337 337 336 337 337 339 340 340 340 339 338 337 336 335 335 337 338 339 340 341 343 344 345 343 341 338 338 339 343 347 348 349 349 349 348 347 345 344 343 342 341 340 338 336 334 332 331 331 332 333 335 336 337 338 339 339 340 341 341 341 341 340 337
335 335 336 337 337 338 338 338 338 339 340 341 342 343 343 342 341 339 338 337 338 339 339 338 336 335 336 338 339 338 336 334 333 336 341 345 345 345 346 346 346 344 342 340 339 339 339 340 339 339 338 336 335 335 335 335 336 337 338 339 340 341 342 342 341 341 340 339 337
335 336 337 338 338 339 339 339 339 340 341 342 343 344 344 343 342 340 340 340 341 341 341 339 336 334 334 337 340 341 341 340 340 341 344 345 345 345 346 346 344 342 340 339 338 339 339 340 340 339 338 338 337 336 336 336 336 336 336 337 339 341 342 343 343 342 341 339 336
336 337 338 338 339 339 339 339 340 341 343 344 345 345 344 343 341 341 341 343 345 347 346 344 341 339 340 343 347 349 350 350 349 347 346 346 346 347 346 344 342 340 339 338 338 339 339 339 338 337 337 336 335 335 335 335 334 334 333 333 335 337 340 343 344 343 342 340 337
337 338 338 338 339 339 340 340 342 344 346 347 347 346 344 342 342 342 345 348 351 353 353 352 349 347 348 350 352 354 354 353 351 349 348 347 348 347 345 341 339 337 337 338 339 339 339 338 336 334 333 332 332 332 333 333 333 332 331 330 331 332 335 338 341 342 342 341 338
337 338 338 338 339 340 341 342 345 348 350 350 349 348 346 344 344 346 349 353 357 359 359 357 355 354 353 353 353 354 354 353 351 349 348 347 347 344 341 337 335 335 335 337 339 339 339 337 334 332 329 327 327 328 330 331 332 331 330 328 327 328 330 333 336 338 339 339 338
337 337 338 339 340 341 343 345 348 351 353 354 352 351 349 348 349 351 354 357 359 360 359 357 356 354 353 353 352 352 352 350 348 346 345 344 342 339 336 334 332 332 333 335 337 338 338 336 333 330 327 324 324 325 327 328 330 329 328 327 325 325 326 328 331 333 335 336 335
336 337 338 339 341 342 344 346 349 353 355 356 356 354 353 353 354 355 357 358 358 357 356 355 353 352 351 350 349 348 346 344 341 339 338 336 334 333 332 331 329 329 330 332 333 335 335 334 333 330 327 325 324 324 325 326 327 327 326 324 323 323 323 325 328 330 332 333 333
336 336 338 339 341 343 344 346 349 352 355 357 357 357 356 357 357 358 358 357 356 355 354 353 351 350 348 346 344 342 339 336 333 330 328 325 325 325 326 326 326 326 326 327 329 330 331 331 331 329 328 326 326 325 325 325 325 324 323 322 321 321 322 324 326 328 330 331 331
335 336 337 339 341 342 343 345 346 349 352 355 357 357 356 356 356 357 357 356 354 353 352 350 349 347 345 343 340 337 334 332 329 327 324 322 321 321 322 323 324 324 324 324 325 326 328 329 329 328 327 326 326 326 325 325 324 323 322 321 320 321 322 324 325 327 328 329 329
334 335 336 338 340 341 342 343 344 345 348 351 354 355 354 354 354 354 354 353 352 351 349 348 346 345 342 339 337 334 333 332 331 329 327 325 324 324 324 323 323 323 322 322 323 324 325 326 327 327 327 326 326 325 325 324 322 321 320 320 320 321 322 323 324 325 325 326 327
333 334 335 337 339 341 341 342 342 343 345 347 350 351 352 352 351 350 350 349 348 347 346 345 344 342 340 337 335 334 333 333 333 332 331 329 328 327 326 325 324 323 322 321 322 323 324 325 326 326 327 326 325 324 323 322 320 319 318 319 320 320 321 321 321 322 323 324 324
332 333 334 336 339 340 341 341 340 341 341 343 346 348 349 349 348 347 346 345 344 344 343 342 341 340 338 336 335 334 334 333 332 332 331 330 330 329 327 326 324 323 322 322 322 323 324 325 326 326 326 325 324 323 321 320 319 318 318 319 319 318 318 318 318 319 320 321 321
330 332 333 336 338 339 339 339 338 338 339 340 343 346 347 347 346 345 343 342 341 340 339 339 339 338 336 335 335 334 333 332 331 330 330 330 330 329 328 326 325 324 324 323 324 324 325 325 325 325 324 324 323 321 320 320 319 319 318 318 317 316 315 315 315 316 317 318 318
329 330 332 334 335 335 335 335 336 336 337 339 342 345 346 346 345 344 342 340 338 337 336 336 336 336 335 334 333 332 331 330 330 330 330 330 330 329 327 326 325 324 324 324 325 325 324 324 324 323 322 322 322 322 321 321 320 319 318 317 315 314 313 313 313 314 315 315 315
327 328 329 330 330 330 331 332 334 335 337 340 343 345 346 345 344 343 342 340 337 335 334 333 333 333 333 332 331 330 330 330 330 330 330 330 329 327 325 324 324 324 324 324 324 324 323 323 322 322 322 323 323 323 323 322 321 320 318 317 316 314 314 313 313 313 314 313 312
325 324 324 323 323 325 327 330 333 336 339 342 344 345 345 344 343 343 342 340 338 335 333 332 331 330 329 328 327 328 328 329 329 329 329 329 326 324 323 323 323 323 323 323 323 322 322 321 321 322 323 323 324 324 324 323 322 320 319 317 316 315 315 314 314 313 312 311 310
321 320 318 317 317 320 323 328 332 336 340 343 344 344 343 342 342 341 341 340 338 336 333 330 328 326 324 323 324 325 326 327 327 327 327 326 323 322 322 322 323 323 322 322 322 322 321 321 321 322 322 323 323 323 323 323 322 321 319 318 316 315 314 314 313 312 311 310 310
Height
1539 1538 1537 1535 1534 1533 1532 1531 1530 1529 1527 1526 1524 1523 1521 1519 1518 1516 1514 1513 1511 1509 1507 1506 1504 1503 1502 1500 1499 1498 1496 1495 1494 1493 1491 1490 1489 1488 1487 1485 1484 1483 1481 1480 1479 1478 1476 1475 1474 1474 1474 1474 1474 1473 1471 1469 1466 1464 1461 1459 1458 1458 1458 1457 1455 1455 1454 1454 1453
1537 1536 1535 1534 1533 1532 1530 1529 1528 1527 1525 1524 1523 1521 1520 1518 1516 1514 1512 1511 1509 1507 1506 1504 1503 1501 1500 1498 1497 1495 1494 1493 1492 1490 1489 1488 1487 1485 1484 1484 1482 1481 1479 1478 1477 1475 1474 1473 1473 1473 1472 1472 1471 1470 1469 1467 1465 1462 1460 1458 1457 1456 1455 1454 1453 1452 1452 1451 1451
1536 1535 1534 1533 1532 1530 1529 1528 1526 1525 1524 1523 1522 1520 1519 1517 1515 1513 1511 1509 1508 1506 1504 1503 1501 1500 1498 1497 1495 1494 1493 1491 1490 1488 1487 1485 1484 1483 1482 1482 1480 1479 1477 1476 1475 1474 1473 1472 1470 1470 1470 1469 1469 1468 1467 1465 1463 1461 1458 1456 1455 1454 1453 1452 1451 1450 1450 1449 1449
1535 1534 1533 1531 1530 1529 1528 1527 1525 1524 1523 1522 1520 1519 1518 1516 1514 1512 1510 1509 1507 1504 1503 1501 1500 1498 1497 1495 1494 1492 1491 1489 1488 1486 1485 1484 1482 1481 1480 1479 1478 1477 1476 1474 1474 1473 1472 1470 1469 1469 1468 1468 1468 1468 1466 1464 1463 1460 1458 1455 1453 1452 1450 1449 1449 1448 1448 1447 1446
1534 1533 1532 1530 1529 1528 1527 1526 1524 1523 1522 1520 1519 1518 1516 1514 1513 1511 1509 1507 1505 1503 1502 1500 1499 1497 1495 1494 1493 1491 1489 1488 1486 1485 1484 1482 1481 1480 1479 1478 1477 1475 1474 1474 1473 1472 1471 1469 1469 1468 1467 1467 1466 1466 1465 1464 1462 1460 1457 1454 1452 1450 1449 1448 1447 1446 1445 1444 1442
1533 1532 1531 1529 1529 1527 1526 1525 1524 1522 1521 1519 1518 1517 1515 1513 1511 1509 1508 1506 1504 1503 1501 1499 1497 1496 1494 1493 1491 1490 1488 1487 1485 1484 1482 1480 1479 1478 1478 1477 1476 1474 1474 1473 1472 1471 1470 1469 1467 1466 1465 1464 1464 1464 1464 1463 1461 1459 1457 1455 1453 1450 1449 1447 1446 1444 1443 1442 1441
1532 1531 1529 1528 1527 1526 1524 1523 1522 1521 1519 1518 1517 1516 1514 1512 1510 1509 1507 1506 1504 1502 1500 1498 1496 1494 1493 1492 1490 1489 1487 1486 1484 1482 1481 1479 1478 1477 1476 1476 1475 1474 1473 1472 1470 1469 1468 1467 1466 1465 1464 1463 1463 1462 1462 1461 1460 1459 1457 1455 1454 1452 1450 1448 1446 1444 1443 1442 1441
1531 1530 1529 1527 1526 1524 1523 1522 1521 1520 1519 1517 1516 1515 1513 1512 1510 1508 1507 1505 1503 1501 1499 1498 1495 1494 1492 1491 1489 1488 1486 1485 1483 1481 1480 1478 1477 1476 1475 1475 1474 1473 1472 1470 1469 1467 1466 1465 1464 1464 1463 1462 1461 1461 1460 1460 1459 1458 1456 1455 1453 1451 1449 1447 1445 1444 1443 1442 1441
1529 1528 1527 1526 1524 1523 1522 1521 1520 1519 1518 1516 1515 1514 1512 1511 1509 1507 1506 1504 1503 1501 1499 1497 1495 1493 1491 1489 1488 1487 1485 1484 1482 1481 1479 1478 1477 1475 1474 1474 1473 1472 1471 1469 1467 1465 1464 1463 1463 1462 1462 1461 1461 1460 1459 1458 1457 1456 1455 1454 1453 1450 1448 1446 1444 1443 1441 1440 1440
1528 1527 1526 1524 1523 1522 1521 1520 1519 1518 1517 1515 1514 1513 1511 1510 1508 1507 1505 1504 1502 1500 1499 1496 1494 1492 1490 1488 1487 1486 1484 1483 1482 1481 1479 1478 1477 1475 1474 1473 1472 1471 1469 1468 1466 1464 1463 1462 1461 1461 1461 1460 1460 1459 1458 1457 1456 1455 1454 1453 1452 1451 1449 1447 1445 1443 1441 1440 1439
1527 1526 1525 1524 1522 1521 1520 1519 1518 1517 1516 1514 1513 1512 1510 1509 1508 1506 1505 1503 1502 1500 1498 1496 1494 1491 1489 1488 1486 1485 1484 1483 1481 1480 1479 1478 1476 1475 1474 1472 1471 1469 1468 1466 1465 1463 1462 1461 1460 1460 1459 1459 1459 1458 1457 1456 1455 1454 1453 1451 1451 1449 1449 1447 1445 1444 1442 1440 1439
1527 1525 1524 1523 1522 1520 1519 1518 1517 1516 1515 1514 1512 1511 1509 1508 1507 1505 1504 1502 1501 1499 1497 1495 1493 1491 1489 1487 1486 1484 1483 1482 1481 1480 1479 1477 1476 1474 1473 1471 1470 1469 1467 1466 1464 1463 1461 1460 1460 1459 1459 1458 1457 1457 1456 1455 1454 1453 1452 1450 1449 1448 1447 1446 1444 1443 1441 1440 1438
1526 1524 1523 1522 1521 1519 1518 1517 1516 1515 1514 1513 1511 1510 1509 1508 1506 1504 1503 1501 1499 1498 1496 1495 1493 1490 1489 1487 1485 1484 1482 1481 1480 1479 1478 1476 1475 1474 1472 1470 1469 1468 1466 1465 1464 1462 1461 1460 1459 1459 1458 1458 1457 1456 1455 1454 1454 1452 1451 1450 1449 1447 1446 1445 1444 1442 1441 1439 1438
1525 1524 1523 1521 1520 1519 1517 1516 1515 1514 1513 1512 1510 1509 1508 1507 1505 1504 1502 1500 1499 1497 1495 1494 1492 1489 1488 1486 1484 1483 1481 1480 1479 1478 1476 1475 1474 1472 1471 1469 1468 1467 1465 1464 1463 1462 1461 1460 1459 1458 1458 1457 1456 1456 1455 1454 1453 1452 1451 1449 1448 1447 1446 1444 1443 1442 1441 1439 1438
1524 1523 1522 1520 1519 1518 1516 1515 1514 1513 1512 1511 1509 1508 1507 1505 1504 1503 1501 1499 1498 1496 1494 1493 1491 1489 1487 1485 1483 1482 1480 1479 1478 1476 1475 1474 1472 1471 1469 1468 1467 1466 1464 1464 1463 1462 1461 1460 1459 1458 1457 1457 1456 1455 1455 1454 1453 1452 1450 1449 1448 1447 1445 1444 1443 1442 1440 1439 1438
1524 1522 1521 1520 1519 1517 1516 1514 1513 1512 1511 1509 1509 1507 1506 1504 1503 1501 1499 1498 1496 1495 1493 1491 1489 1488 1486 1484 1482 1481 1480 1478 1477 1475 1474 1473 1471 1469 1468 1467 1466 1465 1464 1463 1463 1462 1461 1460 1459 1458 1457 1457 1456 1455 1454 1454 1453 1451 1450 1449 1448 1447 1445 1444 1443 1441 1440 1439 1438
1523 1522 1520 1519 1518 1516 1515 1514 1512 1511 1510 1509 1507 1506 1504 1503 1501 1499 1498 1496 1495 1493 1491 1489 1488 1486 1485 1483 1481 1480 1479 1477 1476 1474 1473 1472 1470 1469 1468 1467 1466 1465 1464 1463 1462 1461 1460 1459 1459 1458 1457 1457 1456 1455 1455 1454 1453 1452 1451 1449 1449 1447 1446 1445 1443 1442 1440 1439 1437
1522 1521 1520 1519 1517 1516 1514 1513 1511 1510 1509 1507 1506 1504 1503 1501 1500 1498 1496 1495 1494 1492 1490 1488 1486 1485 1484 1482 1480 1479 1478 1476 1475 1474 1473 1472 1470 1469 1468 1467 1466 1465 1464 1463 1462 1461 1460 1459 1458 1458 1457 1457 1456 1455 1454 1454 1453 1452 1451 1450 1449 1448 1447 1445 1444 1442 1440 1439 1437
1521 1520 1519 1518 1516 1515 1514 1512 1511 1509 1508 1506 1505 1504 1502 1500 1499 1497 1495 1494 1492 1490 1489 1487 1485 1484 1482 1481 1479 1478 1477 1476 1475 1474 1473 1471 1470 1469 1468 1467 1466 1464 1464 1462 1461 1460 1459 1459 1458 1458 1457 1456 1456 1455 1454 1453 1452 1451 1450 1449 1449 1447 1446 1445 1443 1442 1440 1438 1436
1520 1519 1518 1517 1516 1514 1513 1511 1510 1508 1506 1505 1504 1502 1500 1499 1497 1496 1494 1492 1491 1489 1488 1486 1484 1483 1481 1480 1479 1478 1476 1475 1474 1473 1472 1471 1470 1469 1468 1467 1465 1464 1463 1462 1461 1460 1459 1458 1458 1457 1457 1456 1455 1454 1453 1452 1451 1450 1449 1448 1447 1446 1445 1444 1442 1440 1438 1436 1434
1519 1519 1517 1516 1515 1514 1512 1511 1509 1507 1505 1504 1502 1501 1499 1498 1496 1494 1493 1491 1490 1488 1487 1485 1484 1482 1481 1479 1478 1477 1476 1475 1474 1473 1472 1471 1469 1469 1467 1466 1465 1464 1463 1462 1461 1460 1459 1458 1458 1457 1456 1455 1454 1454 1453 1451 1450 1449 1448 1446 1445 1444 1443 1441 1440 1438 1436 1435 1433
1519 1518 1517 1515 1514 1513 1511 1509 1508 1506 1504 1503 1501 1499 1498 1496 1495 1494 1492 1490 1489 1487 1486 1484 1483 1482 1480 1479 1478 1477 1475 1474 1474 1473 1471 1470 1469 1468 1467 1466 1465 1464 1463 1462 1461 1460 1459 1458 1457 1456 1456 1455 1454 1453 1452 1450 1449 1448 1446 1444 1443 1442 1440 1439 1438 1437 1435 1434 1433
1518 1517 1515 1514 1513 1511 1510 1508 1506 1505 1503 1501 1499 1498 1497 1495 1494 1492 1491 1489 1488 1487 1485 1484 1482 1481 1480 1479 1477 1476 1475 1474 1473 1472 1471 1470 1469 1468 1467 1466 1465 1464 1463 1462 1461 1460 1459 1458 1457 1456 1455 1454 1453 1452 1451 1449 1448 1446 1444 1443 1442 1440 1439 1438 1437 1436 1435 1434 1433
1517 1516 1514 1513 1512 1510 1508 1506 1505 1503 1501 1499 1498 1497 1495 1494 1493 1491 1490 1489 1487 1486 1484 1483 1482 1481 1479 1478 1477 1476 1475 1474 1473 1472 1471 1470 1469 1468 1467 1466 1464 1464 1463 1461 1460 1459 1459 1457 1456 1455 1454 1453 1452 1451 1450 1448 1447 1445 1444 1442 1441 1440 1439 1438 1437 1436 1435 1434 1434
1516 1514 1513 1512 1510 1509 1507 1505 1503 1501 1500 1498 1497 1496 1494 1493 1492 1490 1489 1488 1486 1485 1484 1483 1481 1480 1479 1478 1477 1476 1474 1473 1472 1471 1470 1469 1468 1467 1466 1465 1464 1463 1462 1461 1460 1459 1458 1457 1455 1454 1454 1452 1451 1450 1449 1448 1446 1444 1443 1442 1441 1439 1439 1438 1437 1436 1435 1434 1434
1515 1513 1512 1510 1509 1507 1505 1504 1502 1500 1499 1497 1496 1494 1493 1492 1491 1489 1488 1487 1485 1484 1483 1482 1481 1479 1478 1477 1476 1475 1474 1473 1472 1471 1470 1469 1468 1467 1465 1464 1463 1462 1461 1460 1459 1458 1457 1456 1455 1454 1453 1452 1450 1449 1448 1447 1445 1444 1443 1442 1441 1439 1439 1438 1437 1436 1435 1434 1434
1513 1512 1510 1509 1507 1506 1504 1502 1501 1499 1498 1496 1495 1494 1493 1491 1490 1489 1487 1486 1485 1484 1482 1481 1480 1479 1478 1477 1476 1474 1474 1473 1471 1470 1469 1468 1467 1466 1464 1463 1462 1461 1460 1459 1458 1457 1456 1455 1454 1453 1452 1451 1450 1449 1447 1446 1445 1444 1443 1441 1440 1439 1439 1437 1437 1436 1435 1434 1434
1512 1510 1509 1508 1506 1504 1503 1501 1500 1498 1497 1495 1494 1493 1492 1490 1489 1488 1487 1485 1484 1483 1482 1481 1480 1479 1478 1476 1475 1474 1473 1472 1471 1470 1469 1467 1466 1465 1464 1463 1462 1461 1460 1459 1458 1456 1455 1454 1453 1452 1451 1450 1449 1448 1447 1445 1444 1443 1442 1441 1440 1439 1438 1437 1436 1435 1435 1434 1433
1511 1509 1508 1506 1505 1504 1502 1500 1499 1498 1496 1495 1494 1492 1491 1490 1489 1487 1486 1484 1484 1482 1481 1480 1479 1478 1477 1476 1475 1474 1473 1471 1470 1469 1468 1467 1466 1464 1463 1462 1461 1460 1459 1458 1457 1456 1455 1454 1453 1451 1450 1449 1448 1447 1446 1445 1444 1443 1441 1440 1439 1438 1437 1437 1436 1435 1434 1433 1433
1510 1509 1507 1505 1504 1503 1501 1499 1498 1497 1496 1494 1493 1492 1490 1489 1488 1487 1485 1484 1483 1482 1481 1480 1479 1478 1477 1475 1474 1473 1472 1471 1470 1469 1468 1466 1465 1464 1463 1462 1460 1459 1458 1457 1456 1455 1454 1453 1452 1451 1450 1449 1448 1446 1445 1444 1443 1442 1441 1439 1439 1437 1437 1436 1435 1434 1433 1432 1432
1509 1507 1506 1504 1503 1502 1500 1499 1498 1496 1495 1494 1493 1491 1490 1489 1487 1486 1485 1484 1482 1481 1480 1479 1478 1477 1476 1475 1474 1472 1471 1470 1469 1468 1467 1466 1464 1463 1462 1461 1460 1459 1458 1457 1456 1454 1454 1452 1451 1450 1449 1448 1447 1445 1444 1443 1442 1441 1440 1439 1438 1436 1435 1434 1434 1433 1432 1431 1430
1508 1506 1505 1504 1502 1501 1499 1498 1497 1496 1495 1494 1492 1491 1490 1488 1487 1486 1484 1483 1482 1481 1479 1478 1477 1476 1475 1474 1473 1472 1470 1469 1468 1467 1466 1465 1464 1462 1461 1460 1459 1458 1457 1456 1455 1454 1453 1451 1450 1449 1448 1447 1446 1444 1444 1442 1441 1440 1439 1438 1437 1435 1434 1434 1433 1432 1431 1430 1429
1507 1505 1504 1503 1501 1500 1499 1498 1496 1495 1494 1493 1492 1490 1489 1488 1487 1485 1484 1483 1482 1480 1479 1478 1477 1475 1474 1473 1472 1471 1470 1469 1468 1466 1465 1464 1463 1461 1460 1459 1458 1457 1456 1455 1454 1453 1452 1450 1449 1448 1447 1446 1444 1443 1442 1441 1440 1439 1438 1437 1436 1434 1434 1433 1431 1430 1429 1429 1428
1506 1504 1503 1502 1500 1499 1498 1497 1496 1494 1493 1492 1491 1490 1489 1487 1486 1485 1484 1482 1481 1480 1479 1478 1476 1475 1474 1473 1472 1470 1469 1468 1467 1465 1464 1463 1462 1460 1459 1458 1457 1456 1455 1454 1453 1452 1451 1449 1449 1447 1446 1444 1443 1442 1441 1440 1439 1438 1437 1436 1434 1434 1433 1431 1430 1429 1428 1427 1426
1504 1503 1502 1501 1499 1498 1497 1496 1495 1494 1493 1491 1490 1489 1488 1487 1485 1484 1483 1482 1480 1479 1478 1477 1476 1475 1474 1472 1471 1470 1469 1467 1466 1464 1463 1462 1461 1459 1458 1457 1456 1455 1454 1453 1452 1451 1450 1449 1447 1446 1445 1444 1442 1441 1440 1439 1438 1437 1436 1435 1434 1433 1431 1430 1429 1428 1427 1426 1425
1504 1502 1501 1500 1499 1497 1496 1495 1494 1493 1492 1491 1489 1488 1487 1486 1485 1484 1482 1481 1480 1479 1477 1476 1475 1474 1473 1471 1470 1469 1468 1466 1465 1464 1462 1461 1460 1459 1457 1456 1455 1454 1453 1452 1451 1450 1449 1448 1446 1445 1444 1443 1441 1440 1439 1438 1437 1436 1435 1434 1433 1431 1430 1429 1428 1427 1426 1425 1424
1503 1501 1500 1499 1498 1496 1495 1494 1493 1492 1491 1490 1489 1488 1486 1485 1484 1483 1482 1480 1479 1478 1477 1475 1474 1473 1472 1470 1469 1468 1467 1465 1464 1463 1462 1460 1459 1458 1456 1455 1454 1453 1452 1451 1449 1449 1448 1446 1445 1444 1443 1441 1440 1439 1438 1437 1436 1434 1434 1433 1431 1430 1429 1428 1427 1426 1425 1424 1423
1501 1500 1499 1498 1497 1495 1494 1494 1492 1491 1490 1489 1488 1487 1486 1484 1483 1482 1481 1480 1479 1477 1476 1475 1474 1473 1471 1470 1469 1467 1466 1465 1464 1462 1461 1460 1458 1457 1455 1454 1453 1452 1451 1450 1449 1448 1446 1445 1444 1443 1441 1440 1439 1438 1436 1435 1434 1433 1432 1431 1430 1429 1428 1427 1425 1424 1424 1423 1422
1500 1499 1498 1497 1496 1495 1494 1493 1492 1491 1489 1489 1487 1486 1485 1484 1483 1481 1480 1479 1478 1477 1475 1474 1473 1472 1471 1469 1468 1467 1465 1464 1463 1462 1460 1459 1458 1456 1454 1453 1452 1451 1450 1449 1448 1446 1445 1444 1443 1442 1440 1439 1438 1436 1435 1434 1433 1432 1430 1429 1428 1427 1426 1425 1424 1423 1422 1421 1420
1499 1498 1497 1496 1495 1494 1493 1492 1491 1490 1489 1488 1486 1485 1484 1483 1482 1481 1480 1479 1478 1476 1475 1474 1473 1471 1470 1469 1468 1466 1465 1464 1462 1461 1459 1458 1457 1455 1454 1453 1451 1450 1449 1448 1446 1445 1444 1443 1442 1441 1439 1438 1436 1435 1434 1433 1431 1430 1429 1427 1426 1425 1424 1422 1422 1421 1419 1419 1418
1498 1497 1496 1495 1494 1493 1492 1491 1490 1489 1488 1487 1486 1485 1484 1482 1481 1480 1479 1478 1477 1476 1474 1473 1472 1471 1469 1468 1467 1466 1464 1463 1462 1460 1459 1458 1456 1454 1453 1452 1450 1449 1448 1446 1445 1444 1443 1442 1441 1439 1438 1437 1436 1434 1433 1431 1430 1429 1427 1425 1424 1423 1421 1420 1419 1418 1417 1416 1415